Location: Aghk�ilisa
(40.0189°N, 45.0097°E)
Time: 01:58:48
(UTC+00:00)

NOSS 3-3 (C) - Pass Details

Date: 21 October 2019
Orbit: 845 x 1367 km, 63.4° (Epoch: 12 November)

Event Time Altitude Azimuth Distance (km) Brightness Sun altitude
Rises 15:54:00 0° 326° (NNW) 4,014 7.7 -20.1°
Reaches altitude 10° 15:56:37 10° 328° (NNW) 3,119 7.1 -20.6°
Maximum altitude 16:04:16 77° 55° (NE) 1,319 4.5 -22.1°
Enters shadow 16:09:20 27° 138° (SE) 2,330 5.5 -23.1°
